{"data":{"norad_id":48306,"intl_designator":"2021-036AG","name":"STARLINK-2523","alt_names":[],"object_type":"PAYLOAD","status":"ACTIVE","operator":null,"country":"US","launch_date":"2021-04-29","launch_site_code":"AFETR","launch_vehicle":null,"mission":null,"orbit_class":"UNKNOWN","rcs_meters":null,"size_class":null,"mass_kg":null,"dimensions":null,"purposes":["comms"],"wikipedia_slug":null,"has_3d_model":false,"image_url":null,"decayed_at":null,"tle_current":{"epoch":"2026-09-19T16:24:44.499168Z","epoch_age_seconds":104161,"freshness":"FRESH","line1":"1 48306U 21036AG  26262.68384837 -.00001781  00000+0 -45621-4 0  9998","line2":"2 48306  53.1587 276.2114 0001779  57.4675 302.6498 15.31699862297788","mean_motion":15.31699862,"eccentricity":0.0001779,"inclination_deg":53.1587,"raan_deg":276.2114,"arg_perigee_deg":57.4675,"mean_anomaly_deg":302.6498,"bstar":-4.5621e-5,"rev_number":29778,"period_min":94.013196431299,"perigee_km":469.52199130586,"apogee_km":471.95882188713,"semimajor_km":6848.8774065965,"source":"CELESTRAK","updated_at":"2026-09-20T09:00:38.933277Z"}}}